Weather in Goma

Democratic Republic of the Congo     1°40′09″S   29°12′50″E
temp.,
°C
wind,
m/s
gust,
m/s
humid.,
%
clouds,
%
prec.,
mm/h
press.,
hPa
HPBL,
m
28 september, tue
tue2801:00+16nne2285100 2.4 1014119
04:00+15ne2283100 0.1 1014115
07:00+20wnw016398 0.2 1014313
10:00+23sw345447 0.1 10131240
13:00+23wsw125479 0.3 1009976
16:00+21n236537 0.3 1009201
19:00+18ne227990 0.7 101366
22:00+17nne228240 0.8 1014107
29 september, wed
wed2901:00+16ne228172 0.9 1012109
04:00+16ne228099 0.0 1014110
07:00+21wnw116231 0.1 1014370
10:00+24ssw35537 0.3 10131255
13:00+26ssw234787 0.6 10091331
16:00+23ssw12562 0.3 1009385
19:00+18ne3375100 0.3 101388
22:00+18ne227199 0.0 101386
30 september, thu
thu3001:00+17ne227495 0.0 101298
04:00+16ne2274100 0.0 101388
07:00+22nw12546 0.1 1014399
10:00+25ssw344776 0.0 10131513
13:00+24sw1349100 0.1 1010853
16:00+20ssw127243 0.8 1009113
19:00+18ne2175100 0.8 1013101
22:00+18nne227364 0.0 1012107
1 october, fri
fri101:00+17nne2273100 0.0 1011103
04:00+17ne127081 0.0 101291
07:00+21wsw115675 0.0 1014335
10:00+24ssw345075 0.1 10121341
13:00+23wsw2256100 0.4 1010543
16:00+21s026570 0.1 1009152
19:00+19ne2271100 0.1 101180
22:00+18nne2371100 0.0 1011110
2 october, sat
sat201:00+17ne227019 0.0 101093
04:00+17ne227173 0.0 101297
07:00+21sse015685 0.0 1012412
10:00+24sw335365 0.3 10111221
13:00+20nne127084 1.3 1009160
16:00+19ene337990 1.7 1010158
19:00+17nne238613 3.4 1012147
22:00+17ne228298 0.0 1013107